Wind_Speed
40 40 40 41 42 41 41 41 40 38 39 41 41 40 39 39 41 42 44 46 49 50 52 56 57 59 60 62 62 61 60 59 58 58 56 55 53 52 51 50 48 46 45 44
41 40 40 41 41 40 39 39 39 37 37 40 40 38 37 37 39 41 42 44 46 48 51 55 57 58 60 61 62 62 60 60 59 57 56 55 54 53 52 51 49 47 46 45
42 41 41 41 40 39 38 38 38 37 36 37 39 37 35 35 36 38 40 41 43 46 49 53 55 57 59 61 62 62 60 60 59 57 56 55 55 54 53 52 50 48 46 45
42 41 41 41 39 38 37 37 36 36 37 37 36 37 33 33 35 36 37 39 42 45 47 50 53 57 59 60 62 62 61 60 59 57 56 55 55 53 52 51 50 49 48 46
42 41 41 39 38 37 37 37 35 34 36 36 34 37 30 30 32 34 36 37 40 43 46 48 50 55 59 60 62 62 61 61 59 58 56 55 54 53 53 52 51 50 48 47
41 41 40 38 36 35 36 36 35 34 34 34 32 34 31 27 29 31 34 35 38 42 45 47 49 54 59 61 61 63 62 60 60 58 57 55 54 53 53 52 52 50 49 48
42 40 39 37 35 34 33 33 34 34 33 33 31 33 29 26 26 28 31 34 37 40 44 46 49 53 58 61 61 63 61 60 60 58 57 55 54 54 54 53 52 51 49 48
42 40 39 37 35 34 32 30 31 32 32 32 32 32 28 25 25 26 29 33 36 39 43 45 49 52 57 60 61 62 63 61 60 58 57 56 55 55 54 53 52 51 49 48
42 40 38 37 36 34 33 30 29 31 31 31 31 30 26 23 25 26 28 31 35 38 41 44 48 52 56 59 61 61 62 61 60 60 58 56 54 54 54 53 52 50 50 49
41 41 38 37 36 34 32 31 30 30 31 31 29 28 26 23 23 26 28 30 33 36 39 43 48 52 57 59 61 61 62 61 59 60 59 56 54 53 52 53 52 50 50 48
41 41 40 38 36 33 32 31 30 31 30 31 31 29 24 22 23 25 27 29 32 35 37 41 46 52 56 59 60 61 62 61 61 60 59 58 56 55 53 53 52 50 50 48
41 41 41 38 36 34 32 30 30 31 31 32 33 30 24 23 23 25 27 30 32 34 37 40 44 50 54 57 60 61 61 62 62 61 60 58 56 56 55 54 52 51 50 48
41 41 40 39 37 34 32 31 30 31 32 32 33 31 25 24 23 24 26 29 32 34 36 39 43 47 52 55 59 60 62 62 62 62 61 59 58 56 56 55 53 52 51 50
41 41 39 37 35 35 34 33 32 32 33 34 33 30 25 24 25 25 27 29 31 33 35 37 41 46 50 53 56 59 61 62 63 62 61 60 59 57 55 55 55 53 52 51
41 41 39 38 36 35 34 33 32 32 32 33 32 30 26 26 27 27 28 30 31 32 34 36 39 44 48 51 55 58 60 62 62 61 61 61 59 58 57 55 55 54 52 52
41 40 39 37 35 35 34 32 31 31 32 33 32 29 26 27 28 29 30 32 33 33 34 36 39 42 46 49 52 56 58 60 61 61 60 60 60 60 58 56 56 56 53 52
40 39 38 36 34 35 32 28 29 30 30 31 31 29 28 28 28 29 31 31 33 33 34 36 39 41 44 46 49 53 57 58 59 60 60 60 60 59 58 56 56 56 54 52
39 38 37 37 35 34 31 28 28 28 28 29 29 28 28 28 28 29 30 31 32 33 34 35 37 40 43 45 48 51 54 57 58 58 59 58 58 57 57 58 57 56 54 53
38 37 37 36 36 34 28 26 27 27 26 26 26 26 26 26 27 27 29 30 31 33 35 35 36 39 43 45 47 49 52 55 56 57 57 57 57 55 55 56 56 56 54 53
37 36 35 35 34 33 28 27 27 27 24 22 24 24 24 25 26 25 27 29 30 31 34 35 36 39 41 43 45 48 50 52 54 55 55 56 57 55 55 55 54 54 52 51
35 35 33 33 34 32 28 26 25 25 24 22 23 23 24 25 25 25 27 28 29 30 33 34 36 39 41 43 44 45 48 51 53 54 55 55 55 55 54 54 54 53 51 50
35 34 32 32 33 31 28 27 26 25 25 24 24 23 24 24 25 25 26 28 29 30 32 34 35 37 41 42 43 44 46 49 52 54 54 54 54 55 54 53 53 53 51 50
34 33 33 32 31 30 30 29 28 27 26 25 25 24 24 25 25 25 26 28 30 30 31 32 33 34 38 41 42 44 45 47 49 52 54 55 54 53 54 53 52 53 51 48
34 33 33 32 29 29 30 30 29 29 27 26 26 25 25 25 25 25 25 26 29 31 32 33 33 34 36 39 40 43 45 45 47 49 51 53 53 52 52 53 52 52 51 49
32 32 32 31 29 30 30 31 31 30 29 28 27 27 27 26 25 26 25 26 28 30 32 33 34 35 35 37 39 42 44 44 45 47 48 49 50 50 51 51 51 50 49 48
30 31 32 31 30 31 30 31 31 31 30 30 29 28 27 27 27 27 27 27 28 30 31 33 35 36 36 37 38 40 41 42 43 45 47 47 48 49 49 49 49 49 48 47
Wind_Direction
311 308 307 306 304 301 298 295 293 287 280 276 273 270 265 260 256 251 245 241 237 233 229 227 225 224 222 221 219 218 218 218 219 219 220 221 222 223 223 222 222 223 224 225
313 310 308 306 304 301 298 295 292 287 281 278 275 270 266 261 257 251 246 241 236 232 229 226 224 222 221 220 218 217 217 217 218 218 220 221 222 222 223 223 222 222 224 224
314 313 312 309 305 301 298 295 292 288 284 281 278 272 267 261 256 250 246 241 235 231 229 226 223 221 219 219 217 217 216 216 216 218 220 220 221 222 223 223 223 223 223 224
316 315 313 312 307 302 298 294 292 288 285 284 280 276 269 263 255 250 245 240 234 230 228 226 222 219 218 217 216 216 215 215 216 217 219 220 221 222 223 223 223 224 224 225
317 316 316 313 309 302 298 295 292 288 285 284 281 278 273 266 256 249 244 240 234 231 228 225 222 218 217 216 215 215 215 214 215 217 218 219 219 221 222 223 223 224 225 225
316 317 316 314 311 304 300 296 293 288 285 284 283 278 275 269 260 251 244 240 234 230 227 223 221 218 216 215 215 214 215 214 215 216 217 218 219 220 221 222 223 223 224 226
316 317 316 314 310 306 303 300 297 293 288 286 284 278 276 270 259 252 244 239 234 230 226 222 220 217 215 214 215 214 214 214 214 214 216 217 218 219 221 223 223 223 224 226
315 316 316 314 310 307 305 301 297 293 291 290 283 279 276 271 259 251 245 240 236 230 225 223 220 217 215 214 214 215 215 214 214 214 215 217 218 219 221 222 223 224 224 226
313 314 314 312 309 306 303 299 295 291 290 288 284 279 274 269 260 252 246 241 236 231 227 222 219 217 215 215 214 215 216 215 214 214 215 216 217 219 220 222 222 223 224 225
310 310 312 310 308 304 300 298 293 290 288 286 284 281 278 269 260 251 246 241 234 230 227 224 221 217 216 215 214 214 215 215 214 215 216 217 218 219 220 221 222 223 224 225
309 308 309 308 307 304 299 295 291 286 283 283 284 282 278 273 263 253 246 239 233 228 226 225 223 219 218 216 215 213 214 214 215 215 216 217 219 219 220 221 222 223 223 226
307 306 307 307 305 301 297 294 289 284 281 279 279 278 277 272 263 253 245 238 233 229 227 225 224 220 218 217 216 214 215 216 216 217 216 217 218 219 221 222 223 224 225 226
307 305 306 306 305 301 296 292 288 283 279 276 276 277 276 269 262 254 244 237 235 232 229 227 225 222 219 218 217 216 215 216 217 218 218 218 218 219 221 222 224 225 225 227
304 303 303 303 302 299 295 292 287 282 278 275 273 275 272 266 260 252 244 239 235 234 232 229 225 223 220 219 219 219 217 217 217 218 218 219 220 221 221 223 224 225 226 228
304 301 301 300 298 295 294 292 288 283 280 276 273 272 270 262 258 253 245 239 236 234 233 230 226 223 221 220 219 219 218 217 217 218 219 219 221 221 221 223 223 224 227 228
302 300 299 297 295 293 294 294 289 283 279 276 275 272 267 261 258 253 246 241 239 236 233 229 226 224 222 220 220 219 219 219 218 218 219 219 221 222 223 224 224 225 226 228
301 299 297 296 295 292 295 297 290 285 279 274 271 270 265 260 258 255 249 243 240 237 233 229 226 224 223 222 221 221 220 219 219 219 219 220 221 222 223 224 224 225 226 228
301 298 295 295 293 291 298 295 290 286 281 274 270 269 266 263 258 255 249 244 241 238 235 231 227 225 223 222 222 221 221 220 220 219 220 221 221 221 222 224 225 225 226 228
299 296 293 293 292 293 294 294 290 287 283 276 271 268 265 263 258 254 250 245 242 239 235 233 230 227 224 222 222 221 220 219 219 220 221 222 222 222 223 224 225 226 227 228
297 295 292 290 289 291 294 291 288 285 284 276 270 268 266 263 260 253 248 245 241 238 235 234 232 229 226 224 222 221 220 219 219 219 220 221 222 223 223 223 224 226 226 228
296 294 291 288 286 288 293 290 288 284 283 276 272 270 267 264 261 253 247 243 239 237 235 233 231 228 226 224 222 221 220 219 218 218 219 220 221 221 222 223 224 225 226 227
296 295 292 287 285 288 288 286 284 282 279 277 273 270 267 264 260 255 250 244 240 236 234 232 230 227 224 223 222 221 219 218 218 217 218 218 219 219 221 222 224 224 225 227
292 293 290 287 286 285 283 282 280 279 279 276 272 269 266 263 259 257 253 248 243 238 234 231 228 225 223 222 222 221 218 217 217 216 216 217 218 219 220 221 222 224 225 226
292 291 288 287 285 282 280 278 277 277 277 275 273 269 265 262 259 258 254 249 244 240 234 229 225 223 222 222 221 220 218 216 215 214 215 216 217 218 219 220 221 223 225 227
292 289 288 286 284 280 279 277 276 276 274 273 271 269 265 262 259 258 254 248 244 240 233 227 224 223 222 220 218 217 215 214 215 214 213 213 214 216 218 219 220 221 224 226
289 288 287 287 284 281 279 278 277 275 272 269 268 267 265 262 259 258 254 247 242 237 232 228 224 221 220 218 215 214 214 214 214 214 213 214 214 214 215 217 218 219 221 224
Height
5633 5629 5624 5618 5613 5609 5604 5600 5597 5596 5592 5588 5588 5588 5590 5590 5590 5592 5594 5598 5603 5609 5615 5621 5628 5637 5646 5656 5665 5675 5685 5693 5702 5710 5717 5724 5732 5738 5744 5750 5756 5761 5766 5771
5625 5620 5614 5608 5603 5598 5593 5589 5587 5585 5582 5578 5577 5577 5579 5579 5579 5581 5583 5586 5591 5597 5602 5609 5617 5625 5635 5644 5654 5664 5673 5683 5692 5701 5708 5715 5723 5729 5735 5741 5747 5752 5758 5763
5615 5611 5604 5598 5593 5589 5584 5580 5577 5574 5572 5569 5566 5567 5570 5570 5569 5570 5573 5576 5580 5585 5591 5598 5606 5614 5623 5633 5643 5653 5663 5673 5682 5690 5698 5705 5712 5719 5726 5732 5739 5745 5750 5756
5607 5601 5595 5590 5585 5579 5576 5572 5568 5564 5561 5560 5558 5555 5561 5560 5560 5561 5563 5565 5570 5575 5581 5588 5595 5603 5613 5623 5633 5643 5653 5662 5672 5680 5688 5696 5704 5711 5719 5725 5731 5736 5742 5748
5598 5592 5587 5581 5576 5570 5566 5563 5560 5556 5553 5551 5550 5546 5551 5551 5551 5553 5555 5557 5561 5566 5572 5578 5585 5593 5602 5612 5621 5632 5641 5652 5661 5670 5678 5686 5695 5702 5709 5716 5722 5728 5734 5740
5590 5584 5578 5573 5568 5562 5558 5555 5551 5548 5545 5543 5544 5540 5541 5543 5544 5545 5546 5548 5552 5556 5562 5568 5575 5583 5591 5601 5611 5621 5631 5641 5651 5660 5669 5677 5685 5693 5700 5707 5713 5720 5726 5732
5582 5577 5571 5565 5560 5556 5551 5547 5543 5539 5537 5536 5535 5532 5534 5535 5535 5536 5538 5540 5543 5547 5552 5559 5565 5573 5581 5591 5601 5611 5621 5631 5641 5650 5659 5668 5676 5683 5691 5698 5705 5711 5718 5724
5572 5569 5563 5557 5552 5548 5544 5541 5538 5533 5530 5528 5525 5524 5527 5527 5527 5528 5529 5531 5534 5539 5544 5550 5557 5564 5573 5582 5591 5601 5611 5622 5631 5640 5650 5659 5666 5674 5682 5689 5696 5703 5709 5716
5562 5560 5555 5549 5544 5541 5536 5533 5530 5526 5522 5520 5518 5518 5519 5520 5520 5520 5521 5523 5526 5531 5536 5542 5549 5555 5564 5572 5582 5591 5602 5612 5622 5631 5640 5648 5656 5665 5673 5680 5687 5694 5700 5706
5553 5550 5548 5542 5537 5533 5529 5526 5522 5518 5515 5512 5511 5511 5512 5512 5513 5513 5514 5516 5519 5523 5528 5534 5540 5547 5555 5563 5572 5582 5592 5602 5612 5621 5630 5639 5647 5655 5663 5670 5678 5685 5692 5698
5544 5540 5538 5534 5530 5526 5522 5519 5514 5511 5508 5506 5503 5507 5506 5506 5506 5506 5508 5509 5512 5516 5520 5526 5532 5538 5546 5554 5562 5572 5582 5592 5601 5610 5620 5629 5638 5646 5653 5661 5669 5676 5683 5689
5536 5531 5528 5525 5522 5517 5513 5511 5507 5505 5501 5498 5495 5500 5500 5499 5498 5499 5500 5502 5504 5508 5512 5518 5523 5529 5537 5545 5553 5563 5572 5582 5591 5600 5609 5618 5627 5636 5644 5652 5660 5667 5674 5680
5527 5522 5518 5514 5513 5509 5505 5503 5499 5496 5493 5491 5489 5492 5492 5491 5491 5491 5492 5494 5497 5500 5504 5509 5515 5520 5527 5535 5544 5553 5563 5572 5581 5590 5599 5608 5617 5626 5635 5643 5650 5658 5665 5671
5517 5513 5510 5507 5503 5499 5495 5494 5491 5487 5484 5482 5482 5482 5485 5483 5483 5483 5484 5486 5489 5492 5496 5500 5505 5511 5518 5526 5534 5543 5552 5561 5571 5580 5589 5598 5608 5617 5625 5633 5641 5648 5655 5662
5508 5504 5501 5497 5494 5490 5486 5484 5482 5478 5476 5473 5474 5473 5475 5475 5475 5475 5476 5478 5481 5484 5488 5492 5497 5502 5509 5516 5524 5533 5542 5551 5561 5570 5579 5589 5598 5606 5615 5623 5631 5638 5645 5652
5499 5494 5491 5488 5485 5480 5477 5476 5472 5469 5467 5465 5464 5465 5467 5466 5466 5467 5468 5470 5473 5476 5480 5484 5488 5494 5500 5507 5515 5523 5532 5541 5550 5560 5569 5579 5588 5596 5605 5613 5621 5628 5636 5642
5490 5485 5480 5478 5475 5470 5469 5468 5464 5460 5458 5457 5455 5458 5458 5458 5458 5459 5460 5462 5465 5468 5472 5475 5480 5485 5491 5498 5505 5513 5522 5531 5540 5550 5559 5568 5577 5586 5594 5603 5611 5619 5627 5633
5480 5475 5470 5467 5465 5460 5463 5458 5455 5451 5450 5448 5447 5448 5449 5449 5449 5450 5451 5454 5457 5460 5463 5467 5471 5477 5482 5489 5495 5503 5511 5521 5530 5540 5549 5558 5567 5576 5584 5593 5601 5609 5617 5624
5471 5466 5461 5457 5453 5451 5453 5450 5445 5442 5442 5441 5439 5439 5440 5440 5440 5442 5443 5445 5447 5451 5454 5458 5462 5467 5472 5479 5486 5494 5502 5511 5520 5530 5539 5548 5557 5566 5574 5583 5592 5600 5608 5615
5461 5456 5452 5447 5443 5442 5445 5441 5436 5435 5433 5433 5432 5431 5432 5432 5433 5436 5435 5436 5438 5441 5445 5449 5453 5458 5463 5469 5476 5484 5492 5501 5510 5520 5529 5538 5547 5556 5565 5574 5582 5590 5598 5606
5450 5446 5442 5438 5433 5433 5435 5431 5428 5427 5427 5425 5424 5424 5424 5424 5425 5427 5427 5428 5430 5433 5436 5439 5444 5449 5454 5460 5467 5475 5483 5491 5500 5510 5519 5528 5537 5547 5555 5564 5572 5581 5589 5597
5440 5436 5433 5429 5426 5427 5425 5422 5421 5419 5418 5416 5416 5415 5415 5416 5416 5417 5418 5420 5422 5424 5427 5431 5435 5440 5445 5451 5458 5465 5473 5481 5490 5499 5509 5519 5528 5537 5546 5554 5563 5571 5579 5587
5431 5428 5423 5421 5421 5418 5415 5413 5411 5410 5409 5408 5407 5407 5407 5407 5408 5409 5410 5411 5413 5416 5419 5422 5426 5431 5437 5442 5449 5456 5464 5472 5480 5489 5499 5508 5518 5527 5536 5545 5554 5562 5570 5578
5421 5417 5413 5411 5410 5408 5405 5403 5402 5401 5400 5399 5398 5398 5398 5399 5400 5401 5402 5403 5405 5407 5410 5413 5418 5423 5428 5434 5440 5448 5455 5463 5471 5480 5489 5499 5509 5518 5527 5536 5545 5553 5562 5570
5411 5406 5403 5401 5401 5398 5397 5394 5393 5392 5391 5390 5389 5389 5389 5390 5391 5392 5393 5394 5396 5398 5401 5405 5410 5415 5421 5426 5433 5440 5447 5455 5463 5472 5481 5490 5499 5509 5518 5527 5537 5546 5554 5562
5401 5397 5394 5392 5391 5388 5388 5385 5384 5382 5382 5381 5380 5380 5380 5381 5382 5383 5384 5385 5387 5389 5393 5397 5402 5408 5413 5418 5425 5432 5440 5447 5455 5464 5473 5482 5491 5500 5510 5519 5528 5536 5545 5553